Showing default

PICO-02F026, 60567

Orbit data source: Space-Track

PICO-02F026, 60567 is a payload satellite owned by Apogeo Space (IT) in SSO that was launched on Fri, 16 Aug 2024 UTC via an FALCON 9 launch vehicle from the Air Force Western Test Range (AFWTR). Payload-class satellites include a variety of spacecraft equipped with specific instruments for various scientific and technological missions. These include communications satellites like Starlink; space stations such as the ISS; scientific satellites like the Hubble; Earth observation satellites from companies like Planet Labs, Umbra, and HawkEye 360; GPS; miniature CubeSats for education and research; and military/defense satellites.

Loading next visibility...
Identifier
60567, 2024-149DD
Orbit
SSO
Country
Flag of ITIT
Related business
Manufacturer
Apogeo Space
Mission
Operational Commercial Communications
Bus & Motor
CUBESAT 0.3U, Unknown motor
Mass
0.5 kg wet, 0.5 kg dry
Launch date (UTC)
2024-08-16 (1 year ago)
Launch vehicle
FALCON 9
Launch site
Air Force Western Test Range (AFWTR)
Object type
Payload
Rocket body
Debris
Shape & HBR
Box, 0.1 m
Radar Cross Section
0.008 m², Medium (>0.1 m² and < 1m²)

Expand to show TLE details & history
Last TLE update: 19 hours ago

TLE from 19 hours ago
0 PICO-02F026
1 60567U 24149DD  25353.21842943  .00150833  00000-0  24358-2 0  9999
2 60567  97.6962  81.9732 0003279 281.9931  78.0953 15.52332080 74067
Epoch: 2025-12-19T05:14Z
TLE epoch observation values (Epoch: 2025-12-19T05:14:32.302Z)
Latitude
-0.00005°
Longitude
-84.72412°
Altitude
412.586 km
Speed
7.664 km/s
True Right ascension
05h 27m 53s
True Declination
0° 00' 00"
Sunlit
Object was in full shadow at epoch
Visualization orbit readout
Latitude
Unknown
Longitude
Unknown
Altitude
Unknown
Speed
Unknown
Apparent Right ascension
Unknown
Apparent Declination
Unknown
Sunlit
N/A
Visualization observer readout
Local Sidereal Time
23:27:18
Azimuth
Unknown
Elevation
Unknown
Doppler factor
Unknown
Orbital elements
Apogee altitude
409.08 km
Perigee altitude
404.63 km
Semi-major axis
6,784.992 km
Eccentricity
0.00033
Inclination
97.6962°
RAAN
81.9732°
Arg. of periapsis
281.9931°
True anomaly
78.13207°
Mean anomaly
78.0953°
Eccentric anomaly
78.11368°
Mean motion
3.88346 °/min
Orbital period
92.7 mins
BSTAR
0.0024358
Loading maneuver chart data...
Computing Atmospheric mass density...
Loading historical data...
Loading historical data...
Loading historical data...
Loading historical data...
Loading historical data...
Loading historical data...
Loading historical data...

Documentation

Showing up to 5 results
|